Theta_e
333 331 330 331 331 330 332 331 330 329 328 328 326 325 322 318 314 311 312 309 315 320 326 324 325 329 331 332 330 332 333 336 338 336 340 338 332 335 338 339 337 338 338 338 338 339 340 340 340 341 341 340 340 340 341 342 341 340 339 338 338 339 340 339 339 339 339 339 339 338 338 337 338 338
333 334 332 331 330 331 332 330 332 330 329 327 327 325 324 322 319 314 314 313 315 318 322 324 325 326 327 331 331 331 332 338 340 337 339 337 333 334 335 337 338 338 338 337 336 337 338 338 339 338 338 337 337 339 340 340 339 340 340 340 339 339 339 338 338 339 339 339 339 339 339 338 338 337
335 334 333 332 331 330 332 330 331 330 330 328 328 325 325 325 323 319 316 314 317 322 322 323 326 327 327 330 330 331 331 336 337 335 334 334 336 337 335 336 336 336 336 335 334 333 333 334 335 335 336 336 337 338 339 339 338 339 339 339 340 340 340 338 337 337 339 339 339 339 338 338 338 338
335 333 333 332 332 330 330 329 330 330 330 330 328 328 327 325 325 324 319 318 320 322 323 322 325 327 329 331 330 330 330 334 342 335 335 335 341 338 335 338 337 335 334 334 333 331 330 331 333 334 335 336 338 339 338 337 336 337 337 338 339 340 340 338 337 338 338 338 338 338 338 338 338 338
334 334 333 332 333 331 331 330 331 330 330 330 330 330 328 326 325 324 322 320 322 323 324 326 327 328 330 328 326 328 327 328 328 336 334 334 334 333 333 334 337 337 334 332 331 331 330 330 331 332 334 335 337 338 339 337 335 335 335 334 334 335 336 335 334 336 338 338 338 338 338 337 337 337
335 334 332 332 332 331 332 331 330 331 330 330 328 327 329 327 328 327 325 322 320 323 322 324 325 326 329 328 325 327 328 328 329 328 328 331 332 333 333 333 333 337 335 332 330 330 329 330 330 331 332 333 333 334 335 334 332 333 332 331 331 331 330 330 331 334 334 334 336 337 337 337 336 337
335 334 333 333 332 333 331 331 331 331 331 331 331 330 330 329 328 329 328 325 323 323 325 324 324 325 326 328 329 328 329 330 328 327 328 329 330 332 332 331 332 335 334 332 331 330 329 330 330 329 331 331 330 331 329 328 329 328 327 327 329 330 329 329 330 332 332 333 334 335 335 335 335 336
335 335 333 333 333 333 332 331 330 330 331 331 331 330 330 330 329 329 330 329 328 326 325 325 327 325 324 326 328 329 330 329 328 328 329 329 328 328 330 330 330 332 333 332 331 330 329 329 328 328 328 327 326 325 324 324 325 325 325 325 325 325 326 325 326 329 329 329 330 332 333 333 333 331
335 335 334 334 333 333 332 331 331 330 330 331 330 330 330 330 331 331 331 330 329 327 326 326 324 323 324 326 326 327 327 328 327 328 328 329 329 329 329 330 331 333 331 331 331 330 329 329 328 328 327 327 325 324 324 323 323 323 323 323 323 324 324 324 323 324 324 325 326 325 326 328 329 329
336 336 335 334 334 333 332 331 331 331 331 330 330 329 329 330 330 329 329 330 329 329 329 327 327 323 325 324 326 327 328 327 326 327 328 328 328 328 328 329 331 332 331 331 331 330 330 330 329 328 328 327 325 325 324 323 322 321 320 318 317 319 320 321 322 322 322 322 323 325 325 326 326 327
336 336 335 335 335 334 333 332 331 331 330 331 330 331 330 330 329 329 329 329 328 329 328 327 326 327 327 327 327 328 328 328 327 326 325 325 328 328 327 327 330 331 331 332 333 332 331 330 329 323 323 325 325 326 325 323 322 321 319 317 316 316 316 317 319 320 320 321 321 320 319 320 324 326
335 336 336 336 335 335 334 333 332 331 331 331 331 331 331 330 329 329 328 327 328 328 327 326 326 326 327 326 327 328 326 325 325 326 325 324 325 327 327 327 327 329 329 328 329 331 331 329 329 325 325 326 326 326 326 327 327 324 321 319 321 321 319 318 318 319 318 318 317 317 317 317 319 321
335 335 336 335 335 336 340 338 336 335 335 332 331 331 331 331 329 329 328 328 326 326 326 326 326 325 326 326 326 325 323 324 325 326 326 325 326 327 327 328 328 328 327 328 328 328 329 328 328 328 327 328 330 329 330 329 331 329 323 321 322 322 321 320 319 319 318 318 317 316 317 318 319 321
335 335 335 337 342 343 344 340 333 328 329 332 334 333 332 332 330 329 328 327 327 327 326 326 327 326 326 327 327 327 327 328 326 324 323 322 324 324 324 325 326 328 327 326 325 327 329 328 327 326 326 327 329 328 327 327 328 328 326 324 323 323 322 321 320 319 318 318 317 316 315 316 318 319
335 335 335 335 341 344 344 342 335 331 329 329 329 331 332 334 333 330 329 329 330 329 328 329 328 327 327 328 328 328 328 328 327 325 325 324 323 321 320 319 323 326 326 325 323 324 326 325 324 324 325 326 326 327 326 329 329 326 325 324 324 323 323 323 322 321 319 317 317 316 316 316 317 317
335 335 334 334 335 339 339 339 339 335 331 328 328 328 328 329 332 333 334 332 330 329 328 328 328 328 327 328 328 328 326 326 326 326 325 323 322 320 319 318 319 323 327 323 321 322 325 326 324 323 325 326 326 327 326 326 327 325 324 323 323 323 322 322 323 323 322 321 320 321 320 319 319 318
334 333 333 333 334 337 346 344 338 336 336 331 329 328 329 328 328 327 328 330 335 333 330 329 329 329 328 327 328 329 327 326 323 323 321 321 321 322 320 321 321 324 326 323 321 321 324 322 323 322 324 324 325 325 326 325 325 324 323 322 322 322 322 321 321 321 321 320 319 319 318 317 317 317
333 332 332 332 333 333 338 338 334 333 331 330 330 330 330 330 332 328 324 324 325 329 332 331 329 331 330 328 329 331 329 325 324 322 321 322 323 323 322 323 323 324 325 323 322 320 322 323 321 319 321 322 322 323 323 323 323 323 322 322 321 320 320 319 319 319 319 319 318 316 314 313 313 313
334 333 333 333 333 333 334 335 335 332 330 329 330 330 330 330 331 331 332 329 328 328 328 329 329 330 330 330 329 329 328 327 326 325 324 324 324 323 321 321 322 322 323 322 319 314 316 315 315 318 319 321 321 322 321 322 322 322 320 321 321 320 319 318 318 318 317 317 316 314 312 312 311 310
334 334 334 333 333 334 334 335 333 335 332 330 329 328 328 328 329 330 332 329 331 333 330 329 329 330 330 328 331 330 326 324 324 326 325 323 322 321 320 320 321 319 319 319 317 314 314 316 317 317 319 319 318 319 319 320 320 319 319 319 319 317 315 315 315 315 315 315 315 314 312 310 309 308
334 334 334 334 333 333 332 330 324 327 333 329 328 327 327 327 327 329 333 327 324 324 323 322 323 322 321 320 319 317 318 323 323 320 318 319 318 317 317 319 315 315 316 316 318 316 314 316 316 316 317 318 318 318 319 318 318 317 316 315 315 314 314 314 313 313 314 314 314 314 313 311 310 310
334 336 342 340 334 333 332 325 321 323 331 328 327 326 325 325 326 328 332 333 330 323 319 318 318 318 318 319 319 319 318 317 322 322 319 318 315 316 316 315 316 316 317 319 321 314 315 316 312 313 313 314 314 316 315 315 315 317 313 313 314 313 313 313 312 313 313 313 313 313 311 309 309 311
333 333 341 343 334 332 329 320 319 320 326 328 326 324 323 324 325 327 327 326 325 324 325 325 326 325 321 322 320 325 321 318 321 322 322 320 317 317 316 316 314 313 313 316 320 314 310 311 310 311 309 305 307 310 312 313 313 312 313 314 314 314 314 314 312 311 310 311 311 312 310 309 309 311
330 331 335 336 324 322 321 317 315 316 319 327 325 326 325 325 324 324 324 324 323 322 323 321 324 323 321 320 321 321 322 325 328 322 321 320 319 317 316 317 316 314 313 314 320 315 311 311 312 307 310 306 301 303 308 309 310 312 312 311 310 313 315 314 312 311 309 309 309 310 309 308 309 311
329 329 332 335 324 317 316 314 312 312 313 323 326 326 325 325 323 322 321 325 334 320 322 322 321 319 319 317 316 318 317 320 322 322 320 322 320 318 317 316 316 315 317 320 323 317 313 307 308 303 305 305 304 305 303 306 307 308 311 310 309 310 310 310 311 311 310 309 308 307 307 308 308 310
328 329 330 332 326 316 315 313 308 307 309 316 325 323 317 316 320 322 322 322 321 320 318 316 317 316 315 314 315 316 318 320 322 321 319 321 320 320 320 319 317 313 313 316 320 314 310 306 307 306 303 301 302 304 302 302 305 306 307 307 308 308 309 309 310 310 310 311 312 311 312 311 311 311
329 329 330 330 326 315 310 307 306 306 307 314 317 310 310 312 315 325 320 320 317 315 315 315 313 313 312 313 313 315 316 318 317 318 317 317 319 321 323 321 319 317 317 318 320 317 311 305 306 305 304 303 301 302 302 299 300 304 304 306 308 308 309 309 309 310 311 311 313 311 310 310 310 312
328 327 327 325 313 306 302 303 305 306 309 318 307 307 311 314 320 320 320 315 314 315 314 313 312 312 311 311 311 314 317 317 315 316 315 313 313 312 313 312 316 318 317 315 314 312 308 308 308 307 305 302 300 298 299 302 305 304 304 306 307 307 308 309 309 312 314 314 314 315 315 315 316 316
327 321 313 304 303 304 303 305 306 308 310 308 305 307 312 321 318 317 314 312 313 311 312 312 311 312 314 314 314 315 313 316 316 315 313 312 311 311 311 311 314 314 315 315 310 307 305 305 304 304 302 301 300 301 301 301 302 303 305 305 304 307 309 310 310 310 313 313 314 314 314 315 315 317
316 309 306 306 306 307 310 316 319 319 315 310 312 313 318 318 316 315 312 311 312 312 311 312 312 312 311 312 311 314 315 312 310 310 310 309 311 310 310 310 308 307 306 306 306 305 304 303 304 303 302 303 304 302 302 302 301 303 306 305 305 308 310 310 310 311 314 313 314 315 315 316 316 317
317 314 315 315 313 314 316 320 320 317 313 314 314 316 317 316 315 314 312 312 312 312 310 311 311 310 310 311 314 312 311 310 309 309 312 309 307 310 307 305 305 303 304 303 305 306 306 306 306 303 302 303 304 303 303 303 302 302 303 304 305 302 306 308 310 312 313 314 314 315 315 315 316 318
320 318 315 314 318 318 318 317 316 315 315 314 314 313 313 313 314 317 319 319 311 309 311 309 310 313 312 310 309 311 310 307 308 310 311 310 307 308 305 300 300 301 301 302 304 307 312 308 306 305 304 303 302 302 303 302 301 301 302 305 307 307 309 309 310 311 313 314 313 313 314 314 314 315
319 317 318 318 316 317 317 315 314 313 314 315 313 313 312 312 311 312 312 314 314 311 310 311 311 311 309 309 310 310 307 307 307 306 305 305 304 303 300 300 300 299 299 300 303 304 305 305 309 306 304 303 303 303 302 300 301 302 302 304 305 306 308 310 311 312 313 312 312 312 312 314 315 315
319 318 318 318 318 316 316 315 314 314 314 315 313 313 314 312 311 311 313 313 312 311 312 310 310 309 309 307 306 305 306 305 305 303 307 302 303 301 298 299 298 300 302 301 302 303 303 302 302 303 303 306 307 305 304 301 301 302 304 305 306 307 309 311 311 312 313 312 312 311 311 312 313 314
320 318 319 318 318 318 317 317 316 315 314 314 313 313 313 312 313 314 313 312 310 311 311 312 310 308 307 305 303 303 306 306 304 302 303 303 302 299 300 298 300 301 301 301 301 301 300 301 300 300 301 300 300 300 309 306 302 303 305 306 307 307 308 310 311 312 313 313 313 311 310 310 310 310
320 320 320 318 318 317 317 318 318 317 315 315 314 313 312 313 315 314 314 311 312 311 309 308 306 305 303 302 302 303 303 305 301 299 300 299 299 301 300 300 301 302 300 299 299 299 300 300 300 298 297 297 296 296 298 310 312 306 303 303 305 306 308 310 312 313 312 311 312 310 306 304 304 306
320 319 319 319 318 317 318 317 317 317 317 316 315 314 314 314 314 315 312 309 310 309 307 307 304 304 303 303 304 305 304 301 297 299 299 298 299 299 297 298 301 299 298 298 299 300 301 299 300 297 296 295 295 295 297 302 305 308 305 304 305 307 309 311 311 310 310 309 307 306 304 303 303 305
319 319 319 318 317 317 317 317 317 316 316 316 314 314 313 312 312 311 309 309 308 306 306 302 304 304 303 304 301 299 299 299 299 298 298 298 297 296 296 296 296 297 296 298 301 301 299 298 298 298 296 295 294 295 296 300 301 304 307 306 306 308 310 310 309 306 306 306 304 305 305 303 303 305
318 318 318 317 316 315 315 314 314 314 312 312 314 314 312 308 305 304 305 305 305 304 303 303 303 304 304 302 302 301 299 298 297 297 298 297 297 295 296 297 297 297 297 298 298 299 298 297 298 298 296 296 295 296 298 298 300 304 306 306 307 308 310 309 306 305 303 303 304 305 305 306 307 309
317 317 316 315 312 310 309 311 310 310 311 312 311 309 308 306 305 304 303 304 303 305 304 304 304 304 303 302 301 298 297 297 298 297 297 297 298 299 297 298 298 297 296 297 298 298 298 298 299 298 300 301 302 303 303 303 303 304 307 309 307 308 309 308 305 304 303 303 303 302 301 302 301 303
314 314 313 312 310 310 309 308 308 308 308 308 308 308 306 305 304 302 302 303 305 301 302 303 302 300 298 297 298 297 297 298 296 296 298 298 299 300 301 303 296 296 295 297 297 297 298 299 304 307 307 304 303 303 302 302 303 305 306 309 307 306 306 307 305 304 303 304 303 302 300 299 299 299
315 313 310 309 310 309 309 308 308 307 307 306 307 307 305 305 304 309 306 308 302 301 300 299 298 300 298 297 297 300 296 295 295 296 299 296 295 297 299 298 295 296 295 296 297 298 300 301 303 303 301 302 302 302 301 302 302 304 305 307 307 306 306 306 306 306 305 304 302 300 299 299 299 297
315 312 310 310 309 309 308 308 306 306 306 305 305 304 304 303 302 305 301 302 300 301 300 300 298 298 297 297 295 296 294 295 295 295 296 296 296 295 295 295 296 296 296 298 298 299 299 299 299 300 299 299 301 303 302 303 304 304 304 304 304 305 305 306 306 306 307 307 305 304 302 300 297 294
313 312 310 310 309 307 306 306 305 305 305 305 304 303 303 303 303 302 301 300 299 300 300 298 299 298 298 296 296 294 294 295 294 295 296 297 297 296 295 296 298 298 297 298 297 297 298 298 299 299 298 299 301 302 303 304 304 305 304 303 304 302 301 302 304 305 305 305 305 305 305 305 304 303
312 311 310 308 308 307 306 306 307 305 305 305 304 303 303 303 302 301 299 298 299 298 299 298 298 297 297 297 294 295 297 302 297 296 297 296 296 297 297 297 297 297 297 296 295 296 297 297 298 298 297 302 303 303 306 307 306 305 303 302 301 301 300 302 301 300 300 301 303 304 304 304 304 303
Wind_Speed
5 4 5 5 5 4 3 4 4 4 3 3 5 5 6 5 3 1 1 2 2 1 2 1 0 2 2 3 3 3 5 7 7 5 5 6 5 8 12 13 12 12 12 12 12 12 12 12 13 13 14 14 13 13 12 12 11 11 11 12 12 12 11 10 10 10 10 10 9 10 10 10 10 10
5 4 4 4 4 3 4 5 4 4 5 5 5 5 4 6 5 4 2 4 3 2 1 2 1 1 2 1 1 3 3 5 6 4 4 5 5 9 12 12 12 12 12 12 12 12 12 12 13 13 13 13 14 13 13 13 13 12 11 12 14 14 13 12 11 11 11 10 10 10 11 11 11 11
6 5 6 4 4 3 4 3 3 3 4 5 5 5 5 4 4 5 3 1 3 2 3 2 2 1 2 1 0 1 3 4 4 3 3 4 8 11 9 12 11 11 12 12 12 12 12 12 12 13 13 13 14 12 12 14 14 14 14 14 14 14 13 13 13 12 11 11 11 11 11 12 12 12
6 6 6 5 5 4 3 3 3 4 4 4 5 5 5 4 4 5 5 5 6 2 3 3 3 2 2 4 4 5 3 3 4 4 4 6 8 6 5 8 10 10 12 13 13 13 13 13 13 13 13 13 13 12 15 14 14 14 14 14 14 14 14 13 12 10 10 12 13 12 12 13 13 13
5 5 5 5 5 4 5 5 5 4 4 3 4 4 5 5 3 4 4 3 5 3 3 3 3 2 1 3 2 3 3 4 4 3 4 4 4 5 6 6 9 11 12 13 14 14 14 14 14 13 13 13 13 13 14 15 15 15 15 15 15 14 14 14 13 13 11 11 12 11 12 13 13 13
5 5 5 5 5 5 6 5 5 5 5 4 4 3 5 5 5 4 4 4 2 5 1 2 2 2 3 3 2 3 4 5 3 3 4 3 4 5 5 6 7 12 12 13 13 13 14 14 14 14 13 14 14 15 15 14 15 14 14 14 14 14 14 14 14 11 13 15 14 13 12 12 13 13
6 6 6 7 6 5 5 5 5 4 5 4 5 5 4 5 5 5 5 4 4 5 6 3 2 3 3 4 5 3 4 4 3 4 4 4 4 4 5 6 5 10 12 13 14 14 14 14 14 13 13 14 14 14 14 13 14 14 14 14 14 14 14 15 15 15 15 13 13 14 15 15 14 13
8 9 7 7 6 5 6 5 5 5 4 5 5 4 4 5 5 5 5 5 5 5 5 3 3 3 2 4 4 4 3 4 4 4 5 4 4 4 4 6 6 8 13 14 14 14 14 14 14 14 14 14 14 13 13 12 12 13 13 13 14 15 15 15 15 15 15 15 15 14 14 15 14 14
9 9 9 8 6 6 7 5 5 5 5 5 5 6 5 5 5 4 5 6 5 5 6 5 3 2 2 3 4 3 4 4 3 3 4 5 5 5 5 4 5 7 11 13 14 14 14 14 14 14 14 14 14 13 12 12 12 13 13 13 14 14 14 14 14 14 14 14 14 14 15 15 15 15
8 9 9 7 8 8 8 6 5 5 6 5 6 5 5 5 4 5 4 5 5 6 7 6 6 3 5 4 4 4 4 5 6 6 6 5 4 4 7 7 5 4 4 4 5 7 10 12 14 13 13 14 14 13 13 13 13 13 13 14 14 14 14 15 14 14 14 13 13 13 13 13 14 14
8 9 8 8 9 9 8 7 7 7 6 6 7 7 6 5 5 5 6 5 5 6 6 5 6 6 5 4 6 5 3 3 3 5 6 6 5 3 4 7 6 4 5 6 9 10 10 8 7 10 13 14 14 14 13 13 13 13 14 14 14 15 15 15 16 15 15 15 15 14 13 13 14 13
8 9 8 8 8 8 8 8 7 7 7 6 6 6 5 5 5 6 6 4 5 5 5 6 6 5 5 2 4 1 1 2 4 4 5 7 7 6 4 5 7 5 3 6 6 6 6 7 8 10 10 12 13 13 12 12 12 13 14 14 15 15 15 15 15 15 15 15 15 16 16 14 14 13
8 7 8 8 8 8 9 12 10 10 9 7 7 6 5 5 6 6 5 5 5 5 6 7 5 5 5 5 3 4 3 6 8 2 2 5 6 6 7 8 6 6 7 6 5 7 6 6 6 4 4 5 6 6 7 7 10 12 12 13 14 14 15 15 15 15 15 15 15 16 16 16 14 13
8 9 8 8 12 13 13 12 13 13 13 12 9 7 7 7 6 6 6 6 6 6 6 7 6 6 7 5 5 5 6 5 3 3 2 4 7 5 6 7 6 4 4 5 7 7 5 3 5 4 5 5 4 5 5 6 7 9 11 12 12 13 13 14 14 14 14 14 14 15 15 16 16 15
10 8 8 7 10 11 12 11 14 13 13 13 14 11 8 8 8 7 7 7 6 6 7 6 5 6 7 6 4 5 5 3 5 5 4 6 4 5 5 7 5 1 4 3 2 5 4 1 4 5 6 6 5 5 6 10 11 12 12 13 13 13 14 14 14 14 13 13 14 15 15 15 15 14
7 7 7 6 6 7 8 8 9 12 13 13 11 10 9 10 12 12 10 8 6 6 7 6 7 4 5 6 4 4 2 5 4 4 4 5 4 3 3 3 5 3 2 2 2 6 4 4 4 6 7 6 5 6 9 11 12 12 12 12 13 13 13 14 14 14 14 13 13 13 13 13 13 13
6 6 7 6 6 6 12 10 7 7 7 10 13 13 14 14 15 14 13 11 9 5 6 6 6 6 4 4 5 3 3 2 3 3 3 3 3 3 5 6 6 7 1 2 3 6 6 3 4 6 6 6 5 7 8 12 12 12 12 12 13 13 13 13 13 13 13 13 12 12 11 11 11 12
7 8 8 7 7 6 7 7 8 7 6 6 6 7 6 6 7 10 11 10 8 5 6 5 6 5 4 6 5 4 2 2 4 3 5 3 4 5 6 5 5 5 1 4 4 5 6 5 6 6 7 5 5 6 9 13 13 13 13 14 14 14 13 13 12 12 12 12 11 11 11 11 12 12
8 8 8 8 8 7 7 7 9 8 8 7 7 7 6 6 6 5 5 6 6 6 6 6 7 7 5 6 6 4 3 5 4 4 4 4 4 3 2 3 5 6 5 4 3 5 4 3 3 5 6 6 6 5 8 11 13 13 14 14 14 14 14 13 12 12 12 11 11 11 12 13 13 14
7 8 8 8 8 8 9 10 15 12 9 8 8 7 7 5 3 2 5 8 7 6 6 7 6 5 5 5 4 3 3 3 2 1 1 1 1 2 4 5 4 5 3 4 4 3 3 3 4 5 6 5 6 6 6 9 12 13 13 14 14 14 13 13 13 13 13 13 13 13 14 15 15 15
6 7 7 7 8 8 8 11 15 15 13 8 8 7 6 5 3 3 4 8 9 10 7 6 6 6 5 5 6 6 5 3 2 2 0 4 2 2 4 5 3 5 3 2 4 3 4 4 4 5 4 5 6 6 7 6 8 11 12 13 13 13 14 14 14 15 14 15 15 16 17 16 16 17
7 8 14 11 9 9 9 13 16 16 12 8 8 7 5 3 3 2 2 2 1 0 2 3 5 6 6 5 6 6 5 4 4 4 5 3 2 4 4 5 4 5 4 4 3 1 5 3 2 4 4 3 4 5 7 7 7 10 10 12 13 13 14 15 16 16 16 17 17 18 18 17 17 12
6 7 11 15 12 10 10 15 16 16 12 8 7 5 3 3 4 3 2 2 1 1 2 1 1 1 1 2 2 2 6 6 7 6 6 4 4 5 5 5 3 3 3 4 3 2 3 2 4 2 3 3 5 4 6 7 7 6 6 6 8 12 15 16 17 17 17 18 18 18 19 18 16 9
6 7 7 10 15 15 14 16 17 16 15 8 5 5 4 4 5 2 2 2 2 2 2 1 1 0 1 1 1 1 1 2 5 6 6 4 5 5 5 4 4 4 3 4 2 2 3 2 4 2 3 6 5 2 3 4 5 6 6 7 7 11 14 15 13 16 17 17 18 18 19 18 17 9
8 7 7 6 11 15 14 15 18 15 12 7 6 5 5 5 3 4 2 2 5 3 2 0 0 1 1 2 1 1 1 3 2 3 4 5 5 5 4 4 4 5 6 6 4 1 3 2 4 2 4 3 4 4 3 5 6 6 6 7 8 9 8 9 8 9 11 16 17 18 18 19 20 15
7 7 7 7 10 14 15 12 9 9 9 7 4 6 6 6 5 1 2 4 3 3 1 0 1 1 2 3 3 2 1 2 1 2 3 4 5 6 6 6 6 4 5 4 4 3 2 2 5 5 4 3 5 4 6 5 6 8 7 7 7 8 8 9 8 9 9 9 9 11 13 17 18 19
9 7 7 7 11 13 11 11 11 9 9 7 5 7 7 6 5 4 4 3 4 2 1 0 2 3 2 2 2 2 3 3 2 2 2 3 4 4 4 4 5 6 6 5 4 4 3 3 2 4 6 4 7 6 6 6 6 4 6 6 7 8 8 8 9 9 9 9 9 15 16 17 19 20
6 7 6 6 9 11 12 11 11 10 8 5 7 8 8 8 7 4 4 3 3 2 1 1 3 4 3 2 3 3 2 2 3 4 3 3 1 2 3 3 3 3 5 5 6 4 3 4 4 5 5 6 7 7 9 5 7 7 8 7 6 8 8 8 8 9 9 9 8 9 8 9 9 10
6 6 9 11 10 10 10 10 9 6 5 7 9 10 10 10 4 4 5 5 4 3 3 4 3 4 3 4 3 3 2 2 1 1 2 2 2 2 1 3 3 3 2 3 3 3 3 4 6 6 4 3 6 6 6 9 7 7 7 8 8 7 7 7 8 9 9 8 9 9 9 9 10 9
10 10 11 11 11 10 8 7 5 4 4 6 8 9 9 4 4 4 5 3 4 4 3 3 5 5 1 1 2 2 1 1 2 0 2 3 5 5 4 6 6 5 4 4 3 4 4 4 5 4 5 6 6 7 7 9 9 8 8 8 10 9 8 8 7 8 8 9 10 10 10 10 11 10
7 7 7 6 7 7 7 7 8 8 9 7 5 5 4 3 3 4 5 6 5 4 4 5 5 2 3 2 1 1 1 2 2 0 1 2 4 3 2 2 5 6 7 6 6 4 4 5 4 3 4 6 6 7 8 7 9 9 9 9 7 9 8 7 8 9 9 10 10 10 10 10 10 11
6 6 8 9 7 6 6 5 4 4 3 3 4 3 3 3 3 4 4 3 2 3 4 3 1 1 0 1 2 1 1 2 3 0 1 1 3 3 2 3 4 3 6 7 7 7 5 4 4 4 4 6 7 8 6 6 8 9 10 9 8 8 8 9 10 9 10 10 11 12 12 11 12 11
6 7 6 6 5 5 6 5 4 3 3 2 2 3 3 3 3 3 3 5 6 6 3 2 2 2 1 3 1 1 1 2 2 0 1 1 0 2 1 1 5 5 6 7 6 7 6 7 5 4 6 6 7 8 7 8 8 8 8 10 8 9 9 9 9 11 10 9 11 12 13 12 11 12
7 6 6 6 6 6 6 5 5 5 4 4 3 3 4 4 4 4 4 6 5 3 3 3 2 4 3 3 1 1 2 2 2 0 1 1 1 0 2 4 6 5 4 6 7 7 6 6 6 7 5 5 6 8 8 8 10 10 8 8 8 10 10 10 9 10 10 9 11 14 15 15 13 11
7 6 6 5 5 6 6 6 6 5 5 5 5 5 5 4 4 5 5 6 3 3 4 3 4 3 3 3 3 2 1 0 2 4 1 0 1 1 2 3 5 6 6 6 7 6 5 6 6 7 7 7 8 5 8 11 8 9 8 8 8 9 10 9 9 9 10 10 9 13 16 16 15 12
6 6 7 6 6 5 5 5 5 5 6 5 6 5 5 5 5 6 7 5 5 5 4 3 3 3 4 3 2 1 1 0 1 1 3 2 3 3 2 3 3 5 5 6 6 7 5 6 5 6 7 8 7 9 11 5 6 7 9 9 9 9 10 10 10 10 10 11 10 9 13 17 18 18
6 5 6 6 5 5 6 5 5 6 6 6 6 6 6 6 6 7 5 5 5 5 5 5 5 4 4 3 2 1 1 1 1 1 2 2 1 1 2 4 4 4 5 6 6 7 4 5 6 5 6 7 8 9 11 9 11 8 6 9 10 10 10 11 12 13 11 10 13 11 12 14 17 16
7 6 6 5 5 5 5 6 6 6 6 6 5 5 5 5 4 3 3 5 4 5 6 6 5 4 4 3 2 1 1 1 1 1 2 1 1 3 3 4 6 5 6 6 6 6 5 5 6 5 3 6 8 10 11 10 9 9 2 4 10 12 10 11 12 13 14 11 11 12 12 13 15 15
6 7 6 6 6 6 7 6 6 7 5 5 5 5 5 5 5 5 5 5 5 6 5 5 5 4 4 3 2 2 2 1 1 1 1 2 1 2 3 3 5 5 4 6 6 7 6 6 6 6 4 5 7 9 9 9 11 13 11 11 9 10 10 9 12 13 13 14 14 11 12 13 17 21
6 6 6 6 6 6 5 4 4 5 5 5 5 6 6 6 6 6 6 6 5 4 5 5 5 4 3 3 3 2 1 2 2 2 2 3 3 2 2 3 3 4 4 6 7 7 7 7 7 6 7 8 9 9 9 9 9 9 9 9 11 9 8 9 11 13 15 13 13 15 16 13 13 11
6 6 6 6 6 6 6 6 6 6 5 6 6 6 6 6 6 6 6 6 5 6 4 3 3 3 3 3 3 5 4 2 1 1 2 2 1 1 2 2 3 4 4 6 6 7 8 8 9 14 10 7 8 6 4 5 9 11 11 10 6 7 10 9 10 11 13 15 14 14 15 15 15 13
7 7 6 6 7 7 7 7 6 6 6 6 6 6 5 5 6 6 6 4 4 4 3 4 3 3 3 4 3 3 3 2 1 1 1 0 2 3 3 2 4 5 4 6 7 8 9 8 8 7 5 5 5 6 7 7 8 10 11 10 10 8 10 13 15 14 12 12 12 13 13 13 11 13
6 7 7 6 6 7 6 6 6 6 6 6 6 6 6 6 4 6 4 5 4 5 4 4 4 4 4 3 4 4 4 3 3 2 1 0 1 1 3 4 4 5 5 6 7 7 8 8 6 7 6 4 3 2 6 8 8 8 9 11 12 11 11 12 13 15 15 16 15 12 12 13 14 13
6 7 7 7 7 6 6 6 6 6 6 6 6 6 6 6 6 6 6 5 5 6 6 5 5 5 6 6 5 3 4 3 3 1 0 1 1 1 3 4 4 4 5 5 6 8 8 8 7 5 6 6 4 4 7 8 8 8 8 9 10 11 14 13 11 10 9 10 13 17 21 21 17 20
6 7 7 7 7 6 6 6 6 6 6 6 6 6 6 6 6 6 5 5 6 6 5 5 6 6 5 5 5 4 3 2 2 1 1 0 1 1 2 3 3 4 6 5 5 8 7 7 8 5 3 5 4 4 6 6 8 8 9 10 12 11 11 12 14 15 14 12 12 18 21 23 25 23
Wind_Direction
181 181 172 187 187 195 181 166 165 167 144 157 161 160 159 159 139 211 290 285 227 289 192 168 261 177 192 209 229 232 229 232 228 229 227 226 230 240 239 238 240 244 249 250 251 253 256 259 260 259 260 262 263 263 263 262 265 268 271 274 277 275 273 272 271 267 263 263 259 263 266 268 271 275
184 189 183 180 195 191 167 183 177 166 168 159 168 171 154 148 161 176 179 267 216 235 286 190 237 337 21 143 175 190 236 254 247 234 237 233 234 241 241 241 242 245 247 250 253 255 256 256 256 258 260 260 260 260 260 262 265 264 265 265 270 273 274 273 267 261 261 259 260 260 264 267 267 268
182 188 191 188 202 171 190 184 179 174 161 172 165 160 144 169 151 162 148 200 283 196 231 285 245 255 306 350 19 257 237 238 232 240 229 233 236 237 242 242 246 251 255 257 257 255 252 250 250 252 253 257 259 257 254 259 263 265 267 267 267 268 267 270 272 269 263 259 257 259 262 265 264 265
189 187 190 187 195 184 176 183 184 181 188 168 167 165 166 173 167 149 156 183 255 241 205 243 297 258 276 318 315 301 292 263 253 228 233 237 244 250 252 259 256 254 257 259 255 252 248 246 247 249 252 255 255 254 259 261 262 263 265 266 266 267 268 268 268 263 259 262 264 263 260 261 263 265
188 192 196 195 198 173 177 192 190 188 189 176 176 163 158 164 163 150 163 198 260 277 240 224 242 283 311 309 232 267 284 296 288 271 251 256 255 254 256 260 263 258 253 251 250 248 246 247 250 250 250 253 255 256 257 261 261 262 263 265 267 267 268 268 266 265 263 261 261 255 253 258 258 260
195 187 202 207 198 180 188 189 191 195 182 176 167 178 175 178 185 192 157 201 213 271 240 268 280 270 200 238 223 217 264 275 274 273 269 264 239 241 251 255 255 258 258 256 254 251 250 252 254 257 259 259 259 260 261 263 265 265 263 263 264 266 265 264 263 256 257 265 266 264 260 257 260 260
190 195 202 209 197 177 185 194 203 194 195 182 184 197 190 190 196 189 192 168 221 257 273 221 240 231 210 208 256 236 226 240 246 265 259 227 218 226 231 236 248 256 256 256 255 254 255 256 258 259 259 260 260 262 262 262 263 266 268 267 265 263 261 260 260 260 260 258 256 257 258 261 261 258
192 200 201 210 199 184 189 196 196 196 194 188 196 200 203 198 198 198 193 203 203 225 254 274 220 245 227 267 248 249 243 234 246 226 264 275 262 237 209 214 229 242 244 250 251 255 257 260 262 263 263 262 261 260 261 263 265 266 265 264 262 261 261 260 260 258 258 259 261 260 259 262 263 261
193 198 204 200 192 187 199 199 192 186 189 193 189 201 203 199 205 199 197 208 207 213 232 262 268 253 265 249 272 256 264 269 252 242 239 257 267 280 269 255 243 244 234 233 242 247 253 258 263 267 268 267 264 263 264 265 266 266 265 264 263 262 263 263 263 263 260 256 253 256 259 261 264 265
192 197 202 193 190 193 201 197 193 187 194 189 196 204 205 205 200 206 214 208 208 214 233 233 273 263 245 276 260 252 229 249 275 288 285 293 283 288 300 289 282 278 279 290 263 250 251 255 256 259 261 261 262 265 268 270 271 270 270 270 271 270 270 271 270 269 267 265 264 262 259 257 257 260
198 199 197 195 194 197 198 193 192 192 195 193 203 202 202 203 196 210 220 212 212 217 233 245 238 258 253 228 263 276 261 264 250 261 291 291 284 294 272 284 282 273 275 259 254 258 261 259 253 245 246 250 254 256 257 260 261 265 267 268 268 268 269 270 273 276 280 282 280 275 268 266 264 259
203 202 201 201 199 197 195 194 193 185 195 193 203 207 199 196 197 214 222 216 217 227 233 237 244 233 257 257 254 354 33 316 297 243 228 255 275 281 271 257 277 288 287 290 292 273 266 261 250 248 246 245 245 243 245 247 251 254 256 258 261 263 264 266 268 270 272 275 277 279 278 268 263 262
203 203 204 201 199 201 196 194 190 192 188 182 200 210 194 201 202 219 218 214 214 233 236 252 240 253 252 244 251 256 221 219 239 255 166 241 261 273 285 275 255 254 274 280 282 281 270 278 280 279 290 274 267 269 266 261 259 256 255 256 259 262 264 263 263 264 265 265 266 268 272 276 271 263
204 205 201 203 201 200 198 196 199 199 196 196 196 198 193 199 201 211 213 212 215 223 236 242 240 245 252 243 218 234 237 233 263 279 180 225 258 269 269 281 270 240 228 259 274 278 285 261 287 297 287 282 277 272 271 258 255 263 263 264 264 263 262 261 261 262 263 264 265 265 264 265 268 267
208 206 203 202 201 196 200 204 204 205 202 205 212 209 191 191 191 199 209 219 205 213 229 242 232 234 256 260 226 227 249 224 218 229 214 232 247 249 263 283 304 281 180 224 247 274 277 248 276 281 269 267 264 254 253 259 264 266 271 273 274 274 275 275 274 269 263 258 255 256 258 260 261 262
207 203 202 200 196 194 195 196 204 208 208 209 216 215 209 205 207 206 204 211 207 207 222 236 238 230 236 261 249 242 222 241 234 226 219 225 222 234 246 248 267 263 152 195 245 274 281 279 253 261 266 268 260 258 263 267 270 270 272 272 274 275 274 273 273 271 266 259 252 252 253 252 251 251
200 193 191 197 197 201 197 196 196 191 196 202 205 211 218 222 222 223 225 220 216 185 200 222 245 224 221 243 252 216 213 193 235 250 225 206 197 221 253 261 265 278 230 309 269 270 273 269 265 265 268 271 275 281 277 277 281 284 285 286 284 282 282 281 279 275 269 263 258 253 248 247 247 248
194 190 189 191 198 198 198 184 179 174 169 168 175 195 203 210 219 217 220 227 237 223 211 206 233 241 183 233 248 237 170 184 246 237 248 233 268 257 247 248 255 271 305 271 286 279 278 271 273 273 275 273 281 277 279 283 287 289 289 288 286 284 282 279 277 275 269 263 257 252 248 249 252 253
193 189 189 192 196 192 191 184 176 169 171 170 179 187 204 212 212 194 175 184 197 202 208 215 228 248 234 233 247 253 215 212 224 214 227 236 241 259 283 295 255 268 249 227 186 251 262 278 276 267 276 286 282 272 277 277 277 278 279 279 280 281 282 284 283 276 268 261 255 255 260 265 267 264
191 189 190 193 198 194 192 191 179 174 170 175 183 198 216 234 230 194 190 203 204 197 194 200 214 231 237 234 236 231 206 210 207 229 307 342 254 271 275 274 292 280 262 180 188 241 262 252 253 274 278 283 278 273 269 270 267 269 270 272 275 279 283 283 280 274 268 265 266 272 277 278 276 276
198 190 193 194 198 192 193 189 182 179 172 180 188 201 218 224 234 216 197 211 213 217 217 218 231 247 262 261 258 260 247 216 167 126 4 272 191 215 271 271 269 269 279 255 188 200 262 257 239 272 265 265 272 276 274 274 273 271 273 278 280 277 276 277 278 279 278 276 276 278 278 276 276 275
206 200 196 193 191 189 194 185 185 183 177 184 194 202 205 224 253 258 179 167 190 266 237 230 239 245 252 260 267 263 255 181 173 165 224 228 162 225 232 265 253 290 302 263 166 164 236 260 243 254 276 293 256 260 266 269 276 277 273 270 272 276 280 283 284 283 281 279 278 278 277 277 278 279
210 208 208 197 192 191 190 184 188 187 183 190 190 180 169 218 247 232 180 176 162 115 123 120 104 62 246 211 208 232 229 198 193 197 218 212 183 229 242 249 293 316 288 273 161 199 276 308 267 233 313 281 264 253 240 253 261 271 280 284 285 284 283 282 280 279 277 276 276 276 275 274 275 274
211 205 206 202 193 195 187 187 189 191 188 182 165 150 172 201 241 197 168 175 141 125 128 154 102 269 279 290 270 268 268 215 193 199 211 202 191 208 230 234 218 230 242 271 166 206 255 222 267 214 213 278 291 283 292 279 268 268 274 282 282 280 279 279 277 273 269 269 269 269 269 269 267 267
199 196 199 199 195 197 190 188 195 189 191 173 151 164 182 196 183 151 134 165 134 131 129 106 28 297 301 317 321 309 297 276 254 203 204 200 190 192 206 232 232 233 242 249 255 199 250 213 256 303 279 216 252 291 266 271 268 264 255 254 265 269 269 269 268 271 269 267 265 263 265 264 263 256
192 194 187 196 198 197 196 189 164 165 176 175 152 177 170 143 144 161 156 133 108 107 92 84 327 311 325 322 318 308 271 246 232 211 209 199 199 205 207 208 224 241 259 258 190 183 240 279 241 266 269 281 277 249 289 270 261 268 261 255 249 255 257 267 268 270 268 265 267 263 259 257 255 254
196 182 187 192 190 188 173 149 158 157 160 156 179 167 156 156 166 147 120 127 113 112 114 122 276 280 263 281 295 292 295 299 310 296 255 227 211 224 229 235 223 233 256 282 283 264 208 247 239 250 271 265 284 287 271 278 278 263 276 262 261 260 258 259 263 264 266 264 263 261 261 259 259 257
169 167 183 180 165 154 154 153 156 164 167 181 172 162 161 154 152 119 123 117 130 123 136 229 256 265 248 221 258 262 261 276 297 291 275 275 254 241 265 264 262 244 255 260 268 269 227 245 274 261 243 257 269 276 285 255 268 271 277 273 264 267 266 260 262 264 264 263 263 263 263 266 258 259
162 153 136 129 130 129 124 123 123 128 149 146 154 151 148 150 124 134 138 141 128 156 213 231 243 249 247 225 240 259 275 296 301 294 310 315 310 308 276 281 273 271 274 272 273 276 246 233 253 270 275 231 234 254 257 277 285 287 278 291 291 274 273 261 262 265 267 264 262 259 256 257 261 255
119 121 121 117 113 113 123 128 135 139 139 134 128 138 148 134 140 141 141 147 156 199 219 217 226 233 233 259 256 272 279 304 280 346 313 335 317 333 344 349 325 316 298 295 293 278 265 245 246 254 271 275 258 267 271 284 289 282 284 276 273 285 266 264 260 262 268 269 267 266 262 255 256 257
103 105 117 119 114 114 119 116 123 122 129 126 134 149 150 140 151 158 168 164 176 199 211 222 232 238 244 266 311 291 291 279 288 151 259 284 273 300 345 353 303 305 301 311 301 282 270 270 271 248 267 280 286 269 272 269 278 284 280 273 277 276 281 280 276 273 271 271 271 269 268 265 262 255
123 118 109 108 110 115 108 109 96 103 117 138 145 147 150 159 176 180 171 155 170 210 201 203 198 251 216 287 267 263 256 244 273 260 235 206 296 326 12 354 295 295 305 307 311 310 310 293 288 277 240 250 267 279 281 269 268 273 277 279 277 273 275 279 282 280 276 280 282 278 275 272 270 268
105 109 113 110 122 136 130 121 125 139 145 156 150 159 165 171 154 142 144 179 206 202 178 206 220 241 220 256 268 239 274 275 279 244 326 352 267 326 65 255 280 295 302 306 305 305 306 305 296 276 265 262 244 254 270 285 270 257 268 280 287 285 285 281 282 284 287 284 279 279 279 271 266 266
130 136 140 148 146 144 140 150 167 184 191 180 189 202 191 170 159 168 188 209 194 162 178 195 199 233 223 243 211 162 227 279 285 336 77 317 5 321 310 302 293 293 292 291 298 294 305 302 312 309 292 271 252 237 236 245 266 280 275 282 283 286 285 287 285 282 280 274 283 287 282 281 273 262
136 144 148 159 163 161 165 174 187 190 187 199 197 202 192 176 176 186 198 202 164 161 185 205 217 221 199 202 183 181 192 225 315 339 20 72 235 235 256 286 296 301 302 305 301 299 307 306 320 323 321 322 323 292 220 218 256 271 287 286 280 281 287 288 288 288 285 285 279 281 288 288 285 283
153 157 161 165 181 170 174 197 192 187 198 200 204 189 180 195 190 182 206 178 164 179 189 193 191 180 173 167 169 165 156 124 320 303 307 328 338 326 321 278 278 287 290 286 288 294 301 298 314 324 324 321 326 320 318 245 227 275 295 294 295 293 296 298 296 294 294 294 288 288 293 294 295 295
156 169 170 179 181 176 193 191 195 199 200 201 200 194 191 193 189 198 191 156 168 175 174 164 167 163 159 160 152 142 142 149 249 254 276 293 293 253 304 303 300 298 304 292 288 292 292 300 309 318 319 321 321 310 295 301 301 281 256 294 301 303 306 307 307 304 301 302 299 295 285 286 286 289
174 172 177 181 178 185 193 194 195 201 207 206 193 184 187 176 161 160 149 147 150 146 153 155 160 158 157 151 153 182 170 203 212 246 255 262 317 317 293 291 297 301 296 294 297 293 296 287 292 292 299 302 308 305 305 309 313 305 209 282 301 304 310 309 308 308 307 303 292 293 291 286 285 287
162 171 177 181 185 185 193 198 194 203 198 181 174 168 155 139 130 128 135 138 142 143 143 150 166 172 171 173 172 177 204 200 205 244 281 287 247 268 297 305 308 303 319 311 309 305 310 306 299 300 293 289 286 281 285 290 290 290 307 305 288 295 301 311 306 306 304 308 305 294 282 277 279 279
173 166 168 168 178 173 170 158 165 169 165 169 158 154 145 147 149 146 143 142 144 158 162 175 173 169 167 155 171 160 182 206 213 231 242 267 277 267 275 285 283 294 314 308 316 313 314 304 303 308 305 287 269 269 271 268 266 275 276 285 263 255 289 312 310 310 308 306 306 308 308 310 305 304
157 158 171 162 152 154 150 158 155 153 154 154 148 146 142 141 142 151 152 158 158 160 168 163 157 172 175 179 182 172 180 207 213 232 242 247 275 291 305 320 318 313 315 305 305 307 302 293 299 304 301 281 279 288 307 319 316 317 319 314 307 291 285 289 296 302 301 306 308 308 309 313 310 307
161 160 152 154 150 157 147 145 149 143 144 143 137 134 136 143 155 156 156 158 155 162 162 169 189 186 196 199 192 174 159 179 199 231 234 255 317 321 320 332 314 308 313 301 299 289 289 299 308 311 308 310 328 356 322 304 303 310 311 313 313 315 316 310 303 296 293 301 309 310 310 307 307 303
150 147 152 155 144 144 145 143 152 146 145 137 136 141 140 148 146 148 152 157 172 175 191 202 196 185 202 200 184 177 161 184 198 208 229 230 249 292 307 302 288 281 275 279 283 286 295 305 315 324 323 333 320 315 297 301 301 300 308 317 320 324 321 315 304 299 300 302 302 302 308 310 317 313
150 146 148 150 148 148 147 147 150 150 147 149 149 147 152 154 166 180 174 179 178 197 208 202 192 188 195 186 174 179 184 191 184 179 219 253 258 261 274 288 293 296 300 300 309 310 313 317 316 326 321 316 309 314 306 312 312 311 313 310 314 326 326 326 321 312 304 310 316 319 318 314 311 308
152 150 149 154 152 149 151 152 151 154 150 149 146 154 162 162 172 179 190 190 196 203 196 190 188 193 178 161 152 181 208 183 164 194 192 217 248 278 285 284 301 311 312 309 318 311 319 318 313 319 298 304 310 296 297 303 305 311 316 322 327 330 327 329 332 331 333 330 333 330 324 324 328 325